This is the latest recevied weather packets stored in our database for station/object KI7MOQ. If no packets are shown the sender has not sent any weather packets the latest 10 day(s).
| Time | Temp. | Humidity | Pressure | Rain* | Wind** | Luminosity | Snow |
|---|---|---|---|---|---|---|---|
| 1777669160 | 20.56° C | 55% | 1018 hPa | 0 mm | - | 84 W/m² | - |
| 1777668857 | 21.11° C | 53% | 1018.1 hPa | 0 mm | - | 77 W/m² | - |
| 1777668554 | 20.56° C | 53% | 1018.2 hPa | 0 mm | - | 87 W/m² | - |
| 1777668250 | 20.56° C | 55% | 1018.2 hPa | 0 mm | - | 85 W/m² | - |
| 1777667946 | 20.56° C | 54% | 1018.2 hPa | 0 mm | - | 93 W/m² | - |
| 1777667644 | 20° C | 55% | 1018.3 hPa | 0 mm | - | 89 W/m² | - |
| 1777667341 | 20° C | 53% | 1018.3 hPa | 0 mm | - | 89 W/m² | - |
| 1777667038 | 20° C | 54% | 1018.3 hPa | 0 mm | - | 91 W/m² | - |
| 1777666735 | 20.56° C | 55% | 1018.5 hPa | 0 mm | - | 88 W/m² | - |
| 1777666431 | 20° C | 56% | 1018.5 hPa | 0 mm | - | 88 W/m² | - |
| 1777666128 | 20° C | 55% | 1018.5 hPa | 0 mm | - | 94 W/m² | - |
| 1777665825 | 20° C | 56% | 1018.4 hPa | 0 mm | - | 100 W/m² | - |
| 1777665523 | 20° C | 56% | 1018.6 hPa | 0 mm | - | 94 W/m² | - |
| 1777665218 | 20° C | 57% | 1018.6 hPa | 0 mm | - | 106 W/m² | - |
| 1777664915 | 19.44° C | 56% | 1018.6 hPa | 0 mm | - | 120 W/m² | - |
| 1777664611 | 20° C | 56% | 1018.6 hPa | 0 mm | - | 102 W/m² | - |
| 1777664307 | 20° C | 56% | 1018.6 hPa | 0 mm | - | 183 W/m² | - |
| 1777664000 | 19.44° C | 56% | 1018.8 hPa | 0 mm | - | 102 W/m² | - |
| 1777663697 | 19.44° C | 59% | 1018.7 hPa | 0 mm | - | 121 W/m² | - |
| 1777663394 | 18.89° C | 60% | 1018.6 hPa | 0 mm | - | 193 W/m² | - |
| 1777663091 | 18.89° C | 60% | 1018.9 hPa | 0 mm | - | 79 W/m² | - |
| 1777662788 | 19.44° C | 58% | 1018.9 hPa | 0 mm | - | 134 W/m² | - |
| 1777662480 | 18.89° C | 60% | 1019 hPa | 0 mm | - | 295 W/m² | - |
| 1777662175 | 18.89° C | 60% | 1018.8 hPa | 0 mm | - | 309 W/m² | - |
| 1777661871 | 18.33° C | 60% | 1019 hPa | 0 mm | - | 461 W/m² | - |
* Rain latest hour (hover to see other rain measurements)
** Current wind speed in m/s (hover to see current wind gust speed)